Wray Municipal Airport, CO

4:49 PM MST on December 11, 2017 (GMT -0700)
Wray Municipal Airport

Weather History for K2V5 - February, 2014

Change the Weather History Date:

Friday, February 21, 2014

  Actual Average (KSYF) Record (KSYF)
Temperature  
Mean Temperature 37 °F -  
Max Temperature 54 °F 47 °F 77 °F (2017)
Min Temperature 20 °F 21 °F 11 °F (2013)
Degree Days  
Heating Degree Days 28    
Moisture  
Dew Point 20 °F    
Average Humidity 58    
Maximum Humidity 86    
Minimum Humidity 23    
Precipitation  
Precipitation 0.00 in - - ()
Sea Level Pressure  
Sea Level Pressure 29.84 in    
Wind  
Wind Speed 11 mph (WNW)    
Max Wind Speed 26 mph    
Max Gust Speed 33 mph    
Visibility 10 miles    
Events      
Averages and records for this station are not official NWS values.
T = Trace of Precipitation, MM = Missing Value Source: NWS Daily Summary

Daily Weather History Graph

Daily Weather History Graph

Search for Another Location

Airport or City:

Trip Planner

Search our weather history database for the weather conditions in past years. The results will help you decide how hot, cold, wet, or windy it might be!

Date:

Astronomy

Feb. 21, 2014 Rise Set
Actual Time 6:33 AM MST 5:31 PM MST
Civil Twilight 6:06 AM MST 5:59 PM MST
Nautical Twilight 5:34 AM MST 6:30 PM MST
Astronomical Twilight 5:03 AM MST 7:02 PM MST
Moon No Moon Rise 9:59 AM MST (2/21)
Length of Visible Light 11h 52m
Length of Day
10h 57m
Waning Gibbous, 60% of the Moon is Illuminated
Feb 21
Waning Gibbous
Feb 22
Last Quarter
Mar 1
New
Mar 8
First Quarter
Mar 16
Full

Hourly Weather History & Observations

Time (MST) Temp. Windchill Dew Point Humidity Pressure Visibility Wind Dir Wind Speed Gust Speed Precip Events Conditions
12:15 AM 21.7 °F 11.5 °F 15.6 °F 77% 29.86 in 10.0 mi West 9.2 mph - N/A   Clear
12:35 AM 21.2 °F 11.7 °F 15.4 °F 78% 29.85 in 10.0 mi WSW 8.1 mph - N/A   Clear
12:55 AM 21.2 °F 10.9 °F 15.3 °F 78% 29.85 in 10.0 mi West 9.2 mph - N/A   Clear
1:15 AM 20.7 °F 11.0 °F 14.9 °F 78% 29.84 in 10.0 mi WSW 8.1 mph - N/A   Clear
1:35 AM 20.3 °F 9.8 °F 15.1 °F 80% 29.84 in 10.0 mi WSW 9.2 mph - N/A   Clear
1:55 AM 20.8 °F 11.2 °F 15.4 °F 80% 29.83 in 10.0 mi WSW 8.1 mph - N/A   Clear
2:15 AM 21.2 °F 11.7 °F 15.4 °F 78% 29.83 in 10.0 mi WSW 8.1 mph - N/A   Clear
2:35 AM 20.8 °F 11.2 °F 15.4 °F 80% 29.83 in 10.0 mi WSW 8.1 mph - N/A   Clear
2:55 AM 20.8 °F 11.2 °F 15.3 °F 79% 29.83 in 10.0 mi WSW 8.1 mph - N/A   Clear
3:15 AM 21.9 °F 11.0 °F 14.9 °F 74% 29.83 in 10.0 mi WSW 10.4 mph - N/A   Clear
3:35 AM 21.4 °F 11.1 °F 14.9 °F 76% 29.83 in 10.0 mi WSW 9.2 mph - N/A   Clear
3:55 AM 23.0 °F 13.1 °F 15.4 °F 73% 29.83 in 10.0 mi WSW 9.2 mph - N/A   Clear
4:15 AM 24.4 °F 14.2 °F 15.6 °F 69% 29.83 in 10.0 mi WSW 10.4 mph - N/A   Clear
4:35 AM 25.0 °F 16.3 °F 16.2 °F 69% 29.83 in 10.0 mi WSW 8.1 mph - N/A   Clear
4:55 AM 25.5 °F 15.5 °F 16.5 °F 69% 29.83 in 10.0 mi West 10.4 mph - N/A   Clear
5:15 AM 24.8 °F 16.1 °F 16.3 °F 70% 29.83 in 10.0 mi West 8.1 mph - N/A   Clear
5:35 AM 23.2 °F 14.1 °F 16.2 °F 75% 29.83 in 10.0 mi West 8.1 mph - N/A   Clear
5:55 AM 24.1 °F 15.2 °F 16.5 °F 73% 29.83 in 10.0 mi West 8.1 mph - N/A   Clear
6:15 AM 27.1 °F 16.4 °F 17.6 °F 67% 29.83 in 10.0 mi West 12.7 mph - N/A   Clear
6:35 AM 27.9 °F 17.3 °F 17.6 °F 65% 29.83 in 10.0 mi West 12.7 mph - N/A   Clear
6:55 AM 30.0 °F 20.5 °F 18.5 °F 62% 29.84 in 10.0 mi West 11.5 mph - N/A   Clear
7:15 AM 33.3 °F 22.8 °F 18.7 °F 55% 29.85 in 10.0 mi West 16.1 mph - N/A   Clear
7:35 AM 34.5 °F 25.3 °F 19.4 °F 54% 29.85 in 10.0 mi West 13.8 mph 19.6 mph N/A   Clear
7:55 AM 36.7 °F 26.6 °F 19.8 °F 50% 29.85 in 10.0 mi West 18.4 mph 23.0 mph N/A   Clear
8:15 AM 38.7 °F 29.5 °F 20.3 °F 48% 29.86 in 10.0 mi West 17.3 mph 23.0 mph N/A   Clear
8:35 AM 40.3 °F 31.3 °F 20.8 °F 46% 29.86 in 10.0 mi West 18.4 mph 27.6 mph N/A   Clear
8:55 AM 41.0 °F 31.9 °F 21.2 °F 45% 29.87 in 10.0 mi WNW 19.6 mph 27.6 mph N/A   Clear
9:15 AM 41.9 °F 33.7 °F 22.1 °F 45% 29.87 in 10.0 mi West 17.3 mph 26.5 mph N/A   Clear
9:35 AM 43.2 °F 35.9 °F 22.8 °F 45% 29.87 in 10.0 mi WNW 15.0 mph - N/A   Clear
9:55 AM 44.2 °F 36.7 °F 23.7 °F 44% 29.87 in 10.0 mi NW 17.3 mph 25.3 mph N/A   Clear
10:15 AM 44.1 °F 35.7 °F 23.5 °F 44% 29.87 in 10.0 mi NW 20.7 mph 32.2 mph N/A   Clear
10:35 AM 45.5 °F 37.3 °F 24.1 °F 43% 29.86 in 10.0 mi NW 21.9 mph 29.9 mph N/A   Clear
10:55 AM 45.9 °F 37.0 °F 23.4 °F 41% 29.86 in 10.0 mi NW 26.5 mph 31.1 mph N/A   Clear
11:15 AM 45.9 °F 37.0 °F 23.5 °F 41% 29.86 in 10.0 mi NW 26.5 mph 33.4 mph N/A   Clear
11:35 AM 47.3 °F - 23.5 °F 39% 29.86 in 10.0 mi NW 18.4 mph 31.1 mph N/A   Scattered Clouds
11:55 AM 47.8 °F - 23.5 °F 39% 29.85 in 10.0 mi NNW 25.3 mph 33.4 mph N/A   Scattered Clouds
12:15 PM 48.4 °F - 22.5 °F 36% 29.83 in 10.0 mi NW 20.7 mph 28.8 mph N/A   Clear
12:35 PM 48.9 °F - 22.8 °F 36% 29.83 in 10.0 mi NW 18.4 mph 25.3 mph N/A   Clear
12:55 PM 50.5 °F - 22.5 °F 33% 29.81 in 10.0 mi NW 17.3 mph 23.0 mph N/A   Clear
1:15 PM 51.3 °F - 20.8 °F 30% 29.81 in 10.0 mi WNW 17.3 mph 23.0 mph N/A   Clear
1:35 PM 51.4 °F - 20.3 °F 29% 29.81 in 10.0 mi NW 16.1 mph 24.2 mph N/A   Clear
1:55 PM 51.8 °F - 19.6 °F 28% 29.80 in 10.0 mi NW 15.0 mph 23.0 mph N/A   Clear
2:15 PM 52.9 °F - 20.5 °F 28% 29.80 in 10.0 mi NW 16.1 mph 24.2 mph N/A   Clear
2:35 PM 52.7 °F - 19.0 °F 27% 29.79 in 10.0 mi NW 16.1 mph 21.9 mph N/A   Clear
2:55 PM 53.1 °F - 16.9 °F 24% 29.79 in 10.0 mi WNW 19.6 mph 25.3 mph N/A   Clear
3:15 PM 54.5 °F - 17.2 °F 23% 29.79 in 10.0 mi WNW 13.8 mph - N/A   Clear
3:35 PM 52.5 °F - 18.7 °F 26% 29.80 in 10.0 mi NW 12.7 mph - N/A   Scattered Clouds
3:55 PM 51.8 °F - 18.9 °F 27% 29.80 in 10.0 mi NW 10.4 mph - N/A   Clear
4:15 PM 50.9 °F - 18.0 °F 27% 29.80 in 10.0 mi NW 11.5 mph - N/A   Clear
4:35 PM 48.9 °F - 20.1 °F 32% 29.80 in 10.0 mi North 11.5 mph - N/A   Clear
4:55 PM 45.0 °F 41.8 °F 22.1 °F 40% 29.80 in 10.0 mi North 5.8 mph - N/A   Clear
5:15 PM 43.7 °F 41.1 °F 23.2 °F 44% 29.81 in 10.0 mi North 4.6 mph - N/A   Scattered Clouds
5:35 PM 41.9 °F 37.5 °F 23.4 °F 48% 29.81 in 10.0 mi North 6.9 mph - N/A   Mostly Cloudy
5:55 PM 39.6 °F 35.4 °F 23.9 °F 54% 29.82 in 10.0 mi North 5.8 mph - N/A   Overcast
6:15 PM 39.4 °F - 24.1 °F 54% 29.82 in 10.0 mi Calm Calm - N/A   Mostly Cloudy
6:35 PM 38.1 °F - 24.4 °F 58% 29.83 in 10.0 mi Calm Calm - N/A   Mostly Cloudy
6:55 PM 35.8 °F - 25.5 °F 66% 29.83 in 10.0 mi Calm Calm - N/A   Scattered Clouds
7:15 PM 34.3 °F - 25.5 °F 70% 29.83 in 10.0 mi Calm Calm - N/A   Clear
7:35 PM 30.7 °F 24.9 °F 24.1 °F 76% 29.85 in 10.0 mi NNW 5.8 mph - N/A   Clear
7:55 PM 31.6 °F 26.0 °F 24.1 °F 74% 29.85 in 10.0 mi North 5.8 mph - N/A   Clear
8:15 PM 31.6 °F - 24.8 °F 76% 29.85 in 10.0 mi Calm Calm - N/A   Clear
8:35 PM 30.7 °F - 25.5 °F 81% 29.85 in 10.0 mi Calm Calm - N/A   Clear
8:55 PM 30.0 °F - 25.3 °F 83% 29.86 in 10.0 mi Calm Calm - N/A   Clear
9:15 PM 30.0 °F 26.5 °F 24.4 °F 80% 29.85 in 10.0 mi SW 3.5 mph - N/A   Clear
9:35 PM 26.8 °F 22.8 °F 23.0 °F 86% 29.85 in 10.0 mi North 3.5 mph - N/A   Clear
9:55 PM 29.5 °F 23.4 °F 24.4 °F 81% 29.86 in 10.0 mi North 5.8 mph - N/A   Clear
10:15 PM 29.8 °F 26.3 °F 24.3 °F 80% 29.87 in 10.0 mi South 3.5 mph - N/A   Scattered Clouds
10:35 PM 31.3 °F - 24.3 °F 75% 29.87 in 10.0 mi Calm Calm - N/A   Mostly Cloudy
10:55 PM 29.7 °F 22.0 °F 23.7 °F 79% 29.87 in 10.0 mi North 8.1 mph - N/A   Mostly Cloudy
11:15 PM 29.5 °F 22.5 °F 23.9 °F 80% 29.87 in 10.0 mi NNW 6.9 mph - N/A   Scattered Clouds
11:35 PM 30.2 °F 21.9 °F 23.4 °F 76% 29.88 in 10.0 mi NNW 9.2 mph - N/A   Clear
11:55 PM 31.8 °F 21.8 °F 25.9 °F 79% 29.89 in 10.0 mi North 13.8 mph 18.4 mph N/A   Clear